Location: Dreilärchen
(47.9312°N, 8.6113°E)
Time: 20:00:30
(UTC+00:00)

Cosmos 1536 Rocket - Pass Details

Date: 26 May 2022
Orbit: 604 x 632 km, 82.5° (Epoch: 02 July)

Event Time Altitude Azimuth Distance (km) Brightness Sun altitude
Exits shadow 02:08:10 16° 208° (SSW) 1,613 5.1 -11.6°
Maximum altitude 02:11:30 54° 282° (WNW) 755 3.8 -11.3°
Drops below altitude 10° 02:15:50 10° 1° (N) 1,990 7.0 -10.8°
Sets 02:18:07 0° 6° (N) 2,895 8.0 -10.6°
